AUA17DW TXKF-KDFW

Flight info

Callsign AUA17DW
Flight time N/A
Altitude 40000
Route SOMRR1 SOMRR DCT ONGOT M325 OXANA/N0472F400 DCT ILM DCT CTF DCT ODF DCT DCU DCT PBF DCT JRHED SEEVR4
Aircraft B772/H-SDE2E3FGHIJ5LORVWXY/LB1D1

Departure

Time 2026-04-18 10:02
Airport L.F. Wade International Airport (TXKF)

Arrival

Time N/A
Airport Dallas Fort Worth International Airport (KDFW)
Time Latitude Longitude Altitude Speed Heading
2026-04-18 09:17 32.36216 -64.70300 9 ft 0 kts 247°
2026-04-18 09:49 32.36221 -64.70293 9 ft 4 kts 228°
2026-04-18 09:49 32.36239 -64.70269 11 ft 4 kts 227°
2026-04-18 09:50 32.36258 -64.70246 12 ft 4 kts 225°
2026-04-18 09:50 32.36277 -64.70224 12 ft 4 kts 216°
2026-04-18 09:50 32.36300 -64.70211 9 ft 4 kts 177°
2026-04-18 09:50 32.36311 -64.70213 11 ft 1 kts 158°
2026-04-18 09:51 32.36312 -64.70214 11 ft 0 kts 158°
2026-04-18 09:53 32.36307 -64.70211 12 ft 4 kts 158°
2026-04-18 09:54 32.36280 -64.70183 9 ft 5 kts 122°
2026-04-18 09:54 32.36277 -64.70140 9 ft 6 kts 80°
2026-04-18 09:54 32.36305 -64.70056 9 ft 19 kts 66°
2026-04-18 09:54 32.36369 -64.69875 9 ft 26 kts 68°
2026-04-18 09:55 32.36438 -64.69681 9 ft 26 kts 67°
2026-04-18 09:55 32.36506 -64.69486 8 ft 26 kts 68°
2026-04-18 09:55 32.36575 -64.69291 9 ft 26 kts 66°
2026-04-18 09:55 32.36645 -64.69097 8 ft 26 kts 67°
2026-04-18 09:56 32.36702 -64.68940 9 ft 13 kts 66°
2026-04-18 09:56 32.36711 -64.68834 9 ft 13 kts 101°
2026-04-18 09:56 32.36689 -64.68699 9 ft 18 kts 101°
2026-04-18 09:56 32.36663 -64.68552 9 ft 18 kts 102°
2026-04-18 09:57 32.36638 -64.68403 10 ft 18 kts 101°
2026-04-18 09:57 32.36612 -64.68255 10 ft 18 kts 102°
2026-04-18 09:57 32.36586 -64.68108 9 ft 18 kts 101°
2026-04-18 09:57 32.36561 -64.67960 9 ft 18 kts 101°
2026-04-18 09:58 32.36536 -64.67812 10 ft 18 kts 101°
2026-04-18 09:58 32.36510 -64.67664 9 ft 18 kts 102°
2026-04-18 09:58 32.36484 -64.67516 9 ft 18 kts 102°
2026-04-18 09:58 32.36458 -64.67368 9 ft 18 kts 101°
2026-04-18 09:59 32.36433 -64.67220 10 ft 18 kts 101°
2026-04-18 09:59 32.36408 -64.67072 10 ft 18 kts 102°
2026-04-18 09:59 32.36382 -64.66924 11 ft 18 kts 101°
2026-04-18 10:00 32.36331 -64.66629 11 ft 18 kts 102°
2026-04-18 10:00 32.36303 -64.66481 11 ft 18 kts 109°
2026-04-18 10:00 32.36272 -64.66387 11 ft 9 kts 111°
2026-04-18 10:00 32.36227 -64.66337 11 ft 10 kts 169°
2026-04-18 10:01 32.36174 -64.66341 12 ft 5 kts 192°
2026-04-18 10:01 32.36151 -64.66372 12 ft 5 kts 256°
2026-04-18 10:01 32.36152 -64.66394 12 ft 0 kts 276°
2026-04-18 10:01 32.36152 -64.66395 12 ft 2 kts 277°
2026-04-18 10:02 32.36177 -64.66551 12 ft 39 kts 282°
2026-04-18 10:02 32.36282 -64.67175 10 ft 116 kts 281°
2026-04-18 10:02 32.36489 -64.68361 131 ft 165 kts 279°
2026-04-18 10:02 32.36746 -64.69652 939 ft 160 kts 281°
2026-04-18 10:03 32.36989 -64.70961 1718 ft 162 kts 280°
2026-04-18 10:03 32.37224 -64.72356 2163 ft 187 kts 278°
2026-04-18 10:03 32.37482 -64.73976 2428 ft 215 kts 279°
2026-04-18 10:03 32.37782 -64.75805 2694 ft 240 kts 279°
2026-04-18 10:04 32.38112 -64.77783 3312 ft 249 kts 279°
2026-04-18 10:04 32.38453 -64.79819 4019 ft 255 kts 279°
2026-04-18 10:04 32.38829 -64.81889 4799 ft 259 kts 283°
2026-04-18 10:04 32.39337 -64.83938 5568 ft 261 kts 285°
2026-04-18 10:05 32.39888 -64.86002 6323 ft 265 kts 285°
2026-04-18 10:05 32.40450 -64.88094 7010 ft 268 kts 285°
2026-04-18 10:05 32.41014 -64.90207 7688 ft 271 kts 285°
2026-04-18 10:05 32.41581 -64.92343 8374 ft 273 kts 285°
2026-04-18 10:06 32.42144 -64.94480 9020 ft 276 kts 285°
2026-04-18 10:06 32.42718 -64.96669 9664 ft 279 kts 285°
2026-04-18 10:06 32.43293 -64.98872 10268 ft 283 kts 285°
2026-04-18 10:06 32.43891 -65.01177 10427 ft 302 kts 285°
2026-04-18 10:07 32.44526 -65.03630 10568 ft 321 kts 285°
2026-04-18 10:07 32.45196 -65.06223 10893 ft 335 kts 285°
2026-04-18 10:07 32.45886 -65.08891 11417 ft 343 kts 285°
2026-04-18 10:07 32.46591 -65.11618 12082 ft 348 kts 285°
2026-04-18 10:08 32.47300 -65.14365 12841 ft 350 kts 285°
2026-04-18 10:08 32.48014 -65.17136 13605 ft 354 kts 285°
2026-04-18 10:08 32.48735 -65.19937 14291 ft 357 kts 284°
2026-04-18 10:08 32.49464 -65.22773 14960 ft 361 kts 284°
2026-04-18 10:09 32.50197 -65.25628 15652 ft 364 kts 284°
2026-04-18 10:09 32.50936 -65.28511 16338 ft 366 kts 284°
2026-04-18 10:09 32.51678 -65.31408 17004 ft 369 kts 284°
2026-04-18 10:09 32.52426 -65.34336 17648 ft 373 kts 284°
2026-04-18 10:10 32.52924 -65.36284 18048 ft 375 kts 284°
2026-04-18 10:10 32.53683 -65.39255 18639 ft 378 kts 284°
2026-04-18 10:10 32.54445 -65.42243 19181 ft 380 kts 284°
2026-04-18 10:10 32.55212 -65.45252 19749 ft 382 kts 284°
2026-04-18 10:11 32.55981 -65.48274 20313 ft 384 kts 284°
2026-04-18 10:11 32.56754 -65.51316 20871 ft 387 kts 284°
2026-04-18 10:11 32.57533 -65.54383 21407 ft 389 kts 284°
2026-04-18 10:11 32.58315 -65.57465 21940 ft 392 kts 284°
2026-04-18 10:12 32.59101 -65.60565 22471 ft 394 kts 284°
2026-04-18 10:12 32.59891 -65.63686 23013 ft 397 kts 284°
2026-04-18 10:12 32.60693 -65.66830 23537 ft 399 kts 284°
2026-04-18 10:12 32.61502 -65.69984 23993 ft 402 kts 284°
2026-04-18 10:13 32.62322 -65.73170 24425 ft 404 kts 284°
2026-04-18 10:13 32.63142 -65.76362 24868 ft 406 kts 284°
2026-04-18 10:13 32.63968 -65.79580 25308 ft 408 kts 284°
2026-04-18 10:13 32.64795 -65.82807 25768 ft 410 kts 284°
2026-04-18 10:14 32.65626 -65.86056 26208 ft 412 kts 284°
2026-04-18 10:14 32.66459 -65.89321 26647 ft 414 kts 284°
2026-04-18 10:14 32.67297 -65.92607 27104 ft 417 kts 284°
2026-04-18 10:14 32.68136 -65.95905 27603 ft 418 kts 284°
2026-04-18 10:15 32.68979 -65.99219 28087 ft 420 kts 284°
2026-04-18 10:15 32.69823 -66.02544 28541 ft 422 kts 284°
2026-04-18 10:15 32.70673 -66.05894 28982 ft 425 kts 284°
2026-04-18 10:15 32.71526 -66.09263 29403 ft 428 kts 284°
2026-04-18 10:16 32.72384 -66.12656 29804 ft 431 kts 284°
2026-04-18 10:16 32.73249 -66.16081 30220 ft 434 kts 284°
2026-04-18 10:16 32.74117 -66.19519 30575 ft 436 kts 284°
2026-04-18 10:16 32.74989 -66.22978 30927 ft 438 kts 284°
2026-04-18 10:17 32.75864 -66.26456 31253 ft 441 kts 284°
2026-04-18 10:17 32.76743 -66.29950 31596 ft 442 kts 284°
2026-04-18 10:17 32.77622 -66.33453 31947 ft 443 kts 284°
2026-04-18 10:17 32.78502 -66.36958 32358 ft 442 kts 284°
2026-04-18 10:18 32.79378 -66.40454 32822 ft 441 kts 284°
2026-04-18 10:18 32.80250 -66.43940 33281 ft 439 kts 284°
2026-04-18 10:18 32.81118 -66.47414 33715 ft 438 kts 283°
2026-04-18 10:18 32.81983 -66.50881 34133 ft 437 kts 283°
2026-04-18 10:19 32.82849 -66.54357 34506 ft 436 kts 283°
2026-04-18 10:19 32.83710 -66.57818 34914 ft 435 kts 284°
2026-04-18 10:19 32.84558 -66.61227 35558 ft 426 kts 284°
2026-04-18 10:19 32.85397 -66.64604 35984 ft 425 kts 284°
2026-04-18 10:20 32.86236 -66.67995 36067 ft 431 kts 284°
2026-04-18 10:20 32.87935 -66.74871 36111 ft 432 kts 284°
2026-04-18 10:21 32.89611 -66.81659 36125 ft 425 kts 284°
2026-04-18 10:21 32.91273 -66.88413 36127 ft 426 kts 284°
2026-04-18 10:22 32.92933 -66.95183 36115 ft 426 kts 284°
2026-04-18 10:22 32.94580 -67.01910 36124 ft 426 kts 284°
2026-04-18 10:23 32.96234 -67.08683 36124 ft 426 kts 284°
2026-04-18 10:23 32.97883 -67.15456 36122 ft 426 kts 284°
2026-04-18 10:24 32.99530 -67.22236 36128 ft 426 kts 284°
2026-04-18 10:24 33.01175 -67.29025 36118 ft 426 kts 284°
2026-04-18 10:25 33.02816 -67.35817 36118 ft 426 kts 284°
2026-04-18 10:25 33.04453 -67.42608 36118 ft 426 kts 284°
2026-04-18 10:26 33.06087 -67.49403 36115 ft 426 kts 284°
2026-04-18 10:26 33.07716 -67.56201 36118 ft 426 kts 284°
2026-04-18 10:27 33.09345 -67.63013 36117 ft 426 kts 284°
2026-04-18 10:27 33.10967 -67.69813 36117 ft 426 kts 284°
2026-04-18 10:28 33.12585 -67.76618 36114 ft 426 kts 284°
2026-04-18 10:28 33.14200 -67.83423 36114 ft 426 kts 284°
2026-04-18 10:29 33.15808 -67.90222 36116 ft 426 kts 284°
2026-04-18 10:29 33.17414 -67.97027 36111 ft 426 kts 284°
2026-04-18 10:30 33.19017 -68.03839 36111 ft 426 kts 284°
2026-04-18 10:30 33.20616 -68.10651 36114 ft 426 kts 284°
2026-04-18 10:31 33.22188 -68.17472 36115 ft 425 kts 283°
2026-04-18 10:31 33.23576 -68.24337 36115 ft 425 kts 282°
2026-04-18 10:32 33.24925 -68.31223 36108 ft 425 kts 282°
2026-04-18 10:32 33.26287 -68.38096 36112 ft 425 kts 283°
2026-04-18 10:33 33.27659 -68.44964 36112 ft 425 kts 283°
2026-04-18 10:33 33.29031 -68.51827 36111 ft 425 kts 283°
2026-04-18 10:34 33.30400 -68.58698 36111 ft 425 kts 283°
2026-04-18 10:34 33.31765 -68.65569 36108 ft 425 kts 283°
2026-04-18 10:35 33.33127 -68.72444 36110 ft 425 kts 283°
2026-04-18 10:35 33.34485 -68.79323 36109 ft 425 kts 283°
2026-04-18 10:36 33.35840 -68.86206 36108 ft 425 kts 283°
2026-04-18 10:36 33.37190 -68.93094 36106 ft 425 kts 284°
2026-04-18 10:37 33.38538 -68.99984 36100 ft 426 kts 283°
2026-04-18 10:37 33.39883 -69.06881 36104 ft 426 kts 283°
2026-04-18 10:38 33.41226 -69.13789 36107 ft 426 kts 283°
2026-04-18 10:38 33.42563 -69.20694 36105 ft 426 kts 284°
2026-04-18 10:39 33.43900 -69.27618 36110 ft 426 kts 284°
2026-04-18 10:39 33.45232 -69.34535 36106 ft 426 kts 284°
2026-04-18 10:40 33.46561 -69.41460 36103 ft 426 kts 284°
2026-04-18 10:40 33.47886 -69.48385 36103 ft 426 kts 284°
2026-04-18 10:41 33.49198 -69.55270 36098 ft 426 kts 284°
2026-04-18 10:41 33.50515 -69.62197 36103 ft 426 kts 284°
2026-04-18 10:42 33.51827 -69.69121 36102 ft 426 kts 284°
2026-04-18 10:42 33.53134 -69.76044 36103 ft 426 kts 284°
2026-04-18 10:43 33.54438 -69.82972 36101 ft 426 kts 284°
2026-04-18 10:43 33.55736 -69.89894 36094 ft 425 kts 284°
2026-04-18 10:44 33.57030 -69.96811 36102 ft 425 kts 284°
2026-04-18 10:44 33.58319 -70.03728 36104 ft 425 kts 284°
2026-04-18 10:45 33.59603 -70.10641 36096 ft 425 kts 284°
2026-04-18 10:45 33.60885 -70.17564 36096 ft 425 kts 284°
2026-04-18 10:46 33.62162 -70.24486 36095 ft 425 kts 284°
2026-04-18 10:46 33.63436 -70.31411 36098 ft 425 kts 284°
2026-04-18 10:47 33.64707 -70.38341 36099 ft 425 kts 284°
2026-04-18 10:47 33.65769 -70.44154 36101 ft 425 kts 284°
2026-04-18 10:48 33.67035 -70.51099 36099 ft 426 kts 284°
2026-04-18 10:48 33.68295 -70.58045 36097 ft 426 kts 285°
2026-04-18 10:49 33.69546 -70.64956 36101 ft 426 kts 285°
2026-04-18 10:49 33.70804 -70.71928 36100 ft 427 kts 285°
2026-04-18 10:50 33.72057 -70.78899 36096 ft 427 kts 284°
2026-04-18 10:50 33.73306 -70.85870 36097 ft 427 kts 284°
2026-04-18 10:51 33.74551 -70.92844 36086 ft 427 kts 284°
2026-04-18 10:51 33.75795 -70.99839 36096 ft 428 kts 284°
2026-04-18 10:52 33.77036 -71.06839 36095 ft 429 kts 284°
2026-04-18 10:52 33.78277 -71.13861 36091 ft 429 kts 284°
2026-04-18 10:53 33.79514 -71.20888 36091 ft 430 kts 284°
2026-04-18 10:53 33.80748 -71.27924 36093 ft 430 kts 284°
2026-04-18 10:54 33.81979 -71.34966 36088 ft 430 kts 284°
2026-04-18 10:54 33.83209 -71.42027 36093 ft 430 kts 284°
2026-04-18 10:55 33.84433 -71.49077 36092 ft 430 kts 284°
2026-04-18 10:55 33.85651 -71.56122 36083 ft 430 kts 284°
2026-04-18 10:56 33.86870 -71.63191 36081 ft 431 kts 284°
2026-04-18 10:56 33.88087 -71.70277 36093 ft 434 kts 284°
2026-04-18 10:57 33.89308 -71.77409 36091 ft 436 kts 284°
2026-04-18 10:57 33.90531 -71.84584 36089 ft 438 kts 284°
2026-04-18 10:58 33.91754 -71.91788 36078 ft 439 kts 284°
2026-04-18 10:58 33.92975 -71.99004 36085 ft 440 kts 284°
2026-04-18 10:59 33.94194 -72.06241 36089 ft 441 kts 284°
2026-04-18 10:59 33.95413 -72.13496 36088 ft 442 kts 284°
2026-04-18 11:00 33.96627 -72.20754 36087 ft 442 kts 283°
2026-04-18 11:00 33.97838 -72.28016 36074 ft 442 kts 283°
2026-04-18 11:01 33.99461 -72.35127 36092 ft 440 kts 290°
2026-04-18 11:01 34.01374 -72.42148 36083 ft 441 kts 290°
2026-04-18 11:02 34.04213 -72.52701 36083 ft 442 kts 289°
2026-04-18 11:02 34.06087 -72.59751 36085 ft 442 kts 289°
2026-04-18 11:03 34.07959 -72.66816 36084 ft 442 kts 289°
2026-04-18 11:03 34.09829 -72.73892 36084 ft 443 kts 289°
2026-04-18 11:04 34.11697 -72.80977 36079 ft 443 kts 289°
2026-04-18 11:04 34.13561 -72.88068 36076 ft 443 kts 289°
2026-04-18 11:05 34.15421 -72.95162 36068 ft 443 kts 289°
2026-04-18 11:05 34.17277 -73.02256 36078 ft 443 kts 289°
2026-04-18 11:06 34.19129 -73.09355 36077 ft 443 kts 289°
2026-04-18 11:06 34.20981 -73.16458 36076 ft 443 kts 289°
2026-04-18 11:07 34.22831 -73.23562 36077 ft 443 kts 289°
2026-04-18 11:07 34.24674 -73.30662 36071 ft 443 kts 289°
2026-04-18 11:08 34.26513 -73.37766 36080 ft 442 kts 289°
2026-04-18 11:08 34.28346 -73.44867 36078 ft 442 kts 289°
2026-04-18 11:09 34.30173 -73.51961 36076 ft 442 kts 289°
2026-04-18 11:09 34.31996 -73.59060 36076 ft 442 kts 289°
2026-04-18 11:10 34.33814 -73.66159 36066 ft 441 kts 289°
2026-04-18 11:10 34.35555 -73.73255 36072 ft 440 kts 285°
2026-04-18 11:11 34.36415 -73.80584 36072 ft 442 kts 276°
2026-04-18 11:11 34.36512 -73.87974 36079 ft 442 kts 274°
2026-04-18 11:12 34.36574 -73.95414 36073 ft 442 kts 274°
2026-04-18 11:12 34.36647 -74.02853 36071 ft 442 kts 275°
2026-04-18 11:13 34.36729 -74.10282 36072 ft 441 kts 275°
2026-04-18 11:13 34.36810 -74.17700 36071 ft 441 kts 275°
2026-04-18 11:14 34.36888 -74.25127 36071 ft 440 kts 275°
2026-04-18 11:14 34.36961 -74.32538 36072 ft 440 kts 275°
2026-04-18 11:15 34.37028 -74.39937 36061 ft 436 kts 275°
2026-04-18 11:15 34.37055 -74.43546 36051 ft 421 kts 275°
2026-04-18 11:15 34.37079 -74.47067 36052 ft 408 kts 276°
2026-04-18 11:16 34.37134 -74.53893 36013 ft 403 kts 276°
2026-04-18 11:16 34.37162 -74.57291 35670 ft 403 kts 276°
2026-04-18 11:16 34.37191 -74.60699 35197 ft 408 kts 276°
2026-04-18 11:17 34.37220 -74.64149 34692 ft 412 kts 275°
2026-04-18 11:17 34.37247 -74.67638 34206 ft 417 kts 275°
2026-04-18 11:17 34.37271 -74.71163 33664 ft 420 kts 275°
2026-04-18 11:17 34.37293 -74.74706 33201 ft 422 kts 275°
2026-04-18 11:18 34.37313 -74.78208 32783 ft 422 kts 275°
2026-04-18 11:18 34.37332 -74.81806 32326 ft 422 kts 275°
2026-04-18 11:18 34.37350 -74.85361 32100 ft 423 kts 275°
2026-04-18 11:18 34.37367 -74.88883 32077 ft 425 kts 275°
2026-04-18 11:19 34.37399 -74.96039 32065 ft 424 kts 275°
2026-04-18 11:20 34.37450 -75.10073 32055 ft 423 kts 275°
2026-04-18 11:20 34.37470 -75.17194 32062 ft 422 kts 275°
2026-04-18 11:21 34.37487 -75.24297 32065 ft 422 kts 275°
2026-04-18 11:21 34.37499 -75.31392 32065 ft 421 kts 275°
2026-04-18 11:22 34.37508 -75.38499 32068 ft 422 kts 275°
2026-04-18 11:22 34.37512 -75.45600 32057 ft 422 kts 275°
2026-04-18 11:23 34.37512 -75.52704 32061 ft 422 kts 275°
2026-04-18 11:23 34.37508 -75.59818 32067 ft 423 kts 275°
2026-04-18 11:24 34.37499 -75.66937 32067 ft 423 kts 275°
2026-04-18 11:24 34.37487 -75.74058 32068 ft 423 kts 275°
2026-04-18 11:25 34.37470 -75.81178 32056 ft 422 kts 274°
2026-04-18 11:25 34.37449 -75.88287 32068 ft 422 kts 274°
2026-04-18 11:26 34.37424 -75.95388 32066 ft 422 kts 274°
2026-04-18 11:26 34.37395 -76.02485 32065 ft 422 kts 274°
2026-04-18 11:27 34.37362 -76.09594 32060 ft 422 kts 274°
2026-04-18 11:27 34.37325 -76.16703 32048 ft 422 kts 274°
2026-04-18 11:28 34.37284 -76.23787 32054 ft 420 kts 274°
2026-04-18 11:28 34.37238 -76.30849 32054 ft 419 kts 274°
2026-04-18 11:29 34.37190 -76.37905 32055 ft 419 kts 274°
2026-04-18 11:29 34.37137 -76.44953 32056 ft 419 kts 274°
2026-04-18 11:30 34.37080 -76.52010 32050 ft 419 kts 274°
2026-04-18 11:30 34.37019 -76.59054 32063 ft 418 kts 274°
2026-04-18 11:31 34.36965 -76.64907 32062 ft 418 kts 274°
2026-04-18 11:31 34.36896 -76.71934 32063 ft 417 kts 274°
2026-04-18 11:32 34.36824 -76.78949 32060 ft 417 kts 274°
2026-04-18 11:32 34.36748 -76.85972 32061 ft 417 kts 274°
2026-04-18 11:33 34.36668 -76.93000 32057 ft 417 kts 273°
2026-04-18 11:33 34.36584 -77.00012 32065 ft 417 kts 273°
2026-04-18 11:34 34.36495 -77.07039 32062 ft 417 kts 273°
2026-04-18 11:34 34.36403 -77.14053 32054 ft 417 kts 273°
2026-04-18 11:35 34.36307 -77.21065 32061 ft 417 kts 273°
2026-04-18 11:35 34.36207 -77.28083 32056 ft 419 kts 272°
2026-04-18 11:36 34.36157 -77.31658 32069 ft 430 kts 272°
2026-04-18 11:36 34.36104 -77.35311 32249 ft 436 kts 272°
2026-04-18 11:36 34.36047 -77.38975 32778 ft 435 kts 272°
2026-04-18 11:36 34.35988 -77.42614 33447 ft 430 kts 272°
2026-04-18 11:37 34.35928 -77.46214 34004 ft 428 kts 273°
2026-04-18 11:37 34.35869 -77.49818 34038 ft 428 kts 273°
2026-04-18 11:37 34.35751 -77.56922 34057 ft 423 kts 273°
2026-04-18 11:38 34.35629 -77.64027 34038 ft 420 kts 273°
2026-04-18 11:38 34.35504 -77.71074 34045 ft 418 kts 273°
2026-04-18 11:39 34.35377 -77.78113 34044 ft 418 kts 273°
2026-04-18 11:39 34.35253 -77.85165 34056 ft 419 kts 275°
2026-04-18 11:40 34.35786 -77.92149 34056 ft 416 kts 283°
2026-04-18 11:40 34.36744 -77.99064 34054 ft 416 kts 283°
2026-04-18 11:41 34.37674 -78.05963 34049 ft 414 kts 283°
2026-04-18 11:41 34.38583 -78.12801 34044 ft 413 kts 283°
2026-04-18 11:42 34.39488 -78.19661 34039 ft 412 kts 283°
2026-04-18 11:42 34.40390 -78.26528 34035 ft 412 kts 282°
2026-04-18 11:43 34.41288 -78.33393 34037 ft 413 kts 282°
2026-04-18 11:43 34.42182 -78.40263 34042 ft 413 kts 282°
2026-04-18 11:44 34.43073 -78.47142 34048 ft 414 kts 282°
2026-04-18 11:44 34.43961 -78.54028 34053 ft 414 kts 282°
2026-04-18 11:45 34.44845 -78.60917 34056 ft 414 kts 282°
2026-04-18 11:45 34.45726 -78.67810 34058 ft 413 kts 282°
2026-04-18 11:46 34.46601 -78.74688 34051 ft 413 kts 282°
2026-04-18 11:46 34.47472 -78.81570 34033 ft 412 kts 282°
2026-04-18 11:47 34.48337 -78.88433 34030 ft 412 kts 282°
2026-04-18 11:47 34.49194 -78.95258 34041 ft 412 kts 282°
2026-04-18 11:48 34.50052 -79.02134 34035 ft 413 kts 282°
2026-04-18 11:48 34.50908 -79.09017 34036 ft 413 kts 282°
2026-04-18 11:49 34.51758 -79.15898 34034 ft 412 kts 282°
2026-04-18 11:49 34.52611 -79.22821 34034 ft 412 kts 282°
2026-04-18 11:50 34.53452 -79.29691 34029 ft 412 kts 282°
2026-04-18 11:50 34.54289 -79.36557 34032 ft 412 kts 281°
2026-04-18 11:51 34.55123 -79.43429 34018 ft 412 kts 281°
2026-04-18 11:51 34.55952 -79.50292 34028 ft 411 kts 281°
2026-04-18 11:52 34.56770 -79.57100 34030 ft 410 kts 281°
2026-04-18 11:52 34.57589 -79.63952 34032 ft 410 kts 281°
2026-04-18 11:53 34.58404 -79.70797 34046 ft 410 kts 281°
2026-04-18 11:53 34.59215 -79.77640 34047 ft 410 kts 281°
2026-04-18 11:54 34.60022 -79.84492 34046 ft 409 kts 281°
2026-04-18 11:54 34.60823 -79.91322 34046 ft 408 kts 281°
2026-04-18 11:55 34.61618 -79.98140 34044 ft 407 kts 281°
2026-04-18 11:55 34.62408 -80.04941 34044 ft 407 kts 281°
2026-04-18 11:56 34.63194 -80.11746 34045 ft 407 kts 281°
2026-04-18 11:56 34.63978 -80.18550 34037 ft 407 kts 281°
2026-04-18 11:57 34.64757 -80.25359 34037 ft 406 kts 281°
2026-04-18 11:57 34.65158 -80.32205 34034 ft 407 kts 275°
2026-04-18 11:58 34.65322 -80.39079 34022 ft 407 kts 275°
2026-04-18 11:58 34.65494 -80.45940 34021 ft 407 kts 275°
2026-04-18 11:59 34.65670 -80.52811 34020 ft 407 kts 275°
2026-04-18 11:59 34.65842 -80.59675 34021 ft 406 kts 275°
2026-04-18 12:00 34.66012 -80.66538 34039 ft 406 kts 275°
2026-04-18 12:00 34.66177 -80.73384 34043 ft 405 kts 275°
2026-04-18 12:01 34.66416 -80.83632 34047 ft 405 kts 275°
2026-04-18 12:02 34.66572 -80.90469 34045 ft 405 kts 275°
2026-04-18 12:02 34.66719 -80.97118 34042 ft 405 kts 275°
2026-04-18 12:03 34.66862 -81.03718 34041 ft 405 kts 275°
2026-04-18 12:03 34.67005 -81.10512 34047 ft 405 kts 275°
2026-04-18 12:04 34.67145 -81.17343 34030 ft 404 kts 275°
2026-04-18 12:04 34.67283 -81.24212 34050 ft 404 kts 275°
2026-04-18 12:05 34.67414 -81.31007 34036 ft 404 kts 275°
2026-04-18 12:05 34.67543 -81.37827 34042 ft 404 kts 275°
2026-04-18 12:06 34.67667 -81.44640 34038 ft 403 kts 274°
2026-04-18 12:06 34.67787 -81.51451 34024 ft 403 kts 274°
2026-04-18 12:07 34.67904 -81.58264 34023 ft 403 kts 274°
2026-04-18 12:07 34.68018 -81.65079 34024 ft 403 kts 274°
2026-04-18 12:08 34.68127 -81.71894 34025 ft 403 kts 274°
2026-04-18 12:09 34.68335 -81.85541 34031 ft 402 kts 274°
2026-04-18 12:09 34.68417 -81.91190 34037 ft 402 kts 274°
2026-04-18 12:10 34.68511 -81.97996 34034 ft 402 kts 274°
2026-04-18 12:10 34.68601 -82.04796 34032 ft 402 kts 274°
2026-04-18 12:11 34.68689 -82.11602 34038 ft 403 kts 274°
2026-04-18 12:11 34.68772 -82.18409 34042 ft 403 kts 274°
2026-04-18 12:12 34.68852 -82.25211 34047 ft 403 kts 274°
2026-04-18 12:12 34.68928 -82.32023 34057 ft 403 kts 274°
2026-04-18 12:13 34.68999 -82.38824 34054 ft 403 kts 274°
2026-04-18 12:13 34.69068 -82.45626 34054 ft 402 kts 274°
2026-04-18 12:14 34.69132 -82.52410 34032 ft 401 kts 274°
2026-04-18 12:14 34.69192 -82.59191 34040 ft 401 kts 274°
2026-04-18 12:15 34.69248 -82.65972 34043 ft 401 kts 274°
2026-04-18 12:15 34.69302 -82.72748 34043 ft 401 kts 274°
2026-04-18 12:16 34.69351 -82.79483 34059 ft 401 kts 273°
2026-04-18 12:16 34.69396 -82.86251 34058 ft 400 kts 273°
2026-04-18 12:17 34.69438 -82.93000 34050 ft 399 kts 273°
2026-04-18 12:17 34.69475 -82.99734 34053 ft 398 kts 273°
2026-04-18 12:18 34.69510 -83.06469 34047 ft 398 kts 273°
2026-04-18 12:18 34.69540 -83.13201 34058 ft 399 kts 273°
2026-04-18 12:19 34.69567 -83.19937 34073 ft 398 kts 273°
2026-04-18 12:19 34.69591 -83.26652 34068 ft 396 kts 272°
2026-04-18 12:20 34.69607 -83.33331 34070 ft 394 kts 272°
2026-04-18 12:20 34.69613 -83.39982 34064 ft 393 kts 272°
2026-04-18 12:21 34.69616 -83.46615 34055 ft 395 kts 272°
2026-04-18 12:21 34.69616 -83.53303 34060 ft 396 kts 272°
2026-04-18 12:22 34.69613 -83.59991 34057 ft 395 kts 272°
2026-04-18 12:22 34.69605 -83.66663 34050 ft 394 kts 272°
2026-04-18 12:23 34.69595 -83.73307 34046 ft 393 kts 272°
2026-04-18 12:23 34.69581 -83.79949 34052 ft 392 kts 272°
2026-04-18 12:24 34.69563 -83.86572 34077 ft 393 kts 272°
2026-04-18 12:24 34.69542 -83.93227 34084 ft 394 kts 272°
2026-04-18 12:25 34.69517 -83.99874 34078 ft 393 kts 272°
2026-04-18 12:25 34.69485 -84.06502 34074 ft 391 kts 271°
2026-04-18 12:26 34.69455 -84.13108 34057 ft 390 kts 272°
2026-04-18 12:26 34.69422 -84.19682 34058 ft 389 kts 271°
2026-04-18 12:27 34.69383 -84.26262 34046 ft 390 kts 271°
2026-04-18 12:27 34.69340 -84.32864 34044 ft 390 kts 271°
2026-04-18 12:28 34.69294 -84.39451 34020 ft 389 kts 271°
2026-04-18 12:28 34.69244 -84.46021 34021 ft 388 kts 271°
2026-04-18 12:29 34.69191 -84.52570 34022 ft 387 kts 271°
2026-04-18 12:29 34.69135 -84.59106 34034 ft 387 kts 271°
2026-04-18 12:30 34.69075 -84.65641 34050 ft 387 kts 271°
2026-04-18 12:30 34.69012 -84.72192 34059 ft 387 kts 271°
2026-04-18 12:31 34.68945 -84.78728 34063 ft 386 kts 271°
2026-04-18 12:31 34.68875 -84.85244 34065 ft 385 kts 271°
2026-04-18 12:32 34.68802 -84.91761 34066 ft 385 kts 271°
2026-04-18 12:32 34.68725 -84.98271 34064 ft 386 kts 270°
2026-04-18 12:33 34.68645 -85.04745 34060 ft 386 kts 270°
2026-04-18 12:33 34.68562 -85.11271 34037 ft 386 kts 270°
2026-04-18 12:34 34.68474 -85.17789 34024 ft 385 kts 270°
2026-04-18 12:34 34.68384 -85.24288 34010 ft 385 kts 270°
2026-04-18 12:35 34.68290 -85.30780 34006 ft 384 kts 270°
2026-04-18 12:35 34.68193 -85.37269 33998 ft 384 kts 270°
2026-04-18 12:36 34.68092 -85.43762 34020 ft 385 kts 270°
2026-04-18 12:36 34.67987 -85.50251 34016 ft 383 kts 270°
2026-04-18 12:37 34.67879 -85.56729 34005 ft 383 kts 270°
2026-04-18 12:37 34.67769 -85.63198 34005 ft 383 kts 269°
2026-04-18 12:38 34.67655 -85.69668 34005 ft 383 kts 269°
2026-04-18 12:38 34.67538 -85.76145 34005 ft 383 kts 269°
2026-04-18 12:39 34.67417 -85.82626 34005 ft 384 kts 269°
2026-04-18 12:39 34.67292 -85.89104 34000 ft 384 kts 269°
2026-04-18 12:40 34.67164 -85.95593 33999 ft 384 kts 269°
2026-04-18 12:40 34.67033 -86.02075 33999 ft 384 kts 269°
2026-04-18 12:41 34.66897 -86.08554 33996 ft 383 kts 270°
2026-04-18 12:41 34.66759 -86.15027 34007 ft 384 kts 269°
2026-04-18 12:42 34.66618 -86.21527 33998 ft 384 kts 269°
2026-04-18 12:42 34.66473 -86.28018 34007 ft 384 kts 269°
2026-04-18 12:43 34.66323 -86.34501 34022 ft 384 kts 269°
2026-04-18 12:43 34.66171 -86.40992 34004 ft 384 kts 269°
2026-04-18 12:44 34.66016 -86.47475 34006 ft 384 kts 269°
2026-04-18 12:44 34.65857 -86.53957 34017 ft 383 kts 269°
2026-04-18 12:45 34.65695 -86.60429 34021 ft 383 kts 269°
2026-04-18 12:45 34.65529 -86.66895 34019 ft 383 kts 269°
2026-04-18 12:46 34.65389 -86.72262 34018 ft 382 kts 269°
2026-04-18 12:46 34.65218 -86.78713 34037 ft 382 kts 269°
2026-04-18 12:47 34.65044 -86.85167 34036 ft 382 kts 269°
2026-04-18 12:47 34.64866 -86.91634 34028 ft 382 kts 268°
2026-04-18 12:48 34.64617 -86.98081 34040 ft 382 kts 266°
2026-04-18 12:48 34.64211 -87.04503 34025 ft 381 kts 266°
2026-04-18 12:49 34.63794 -87.10896 34021 ft 380 kts 266°
2026-04-18 12:49 34.63387 -87.17300 34017 ft 379 kts 266°
2026-04-18 12:50 34.62987 -87.23685 33996 ft 379 kts 266°
2026-04-18 12:50 34.62587 -87.30077 33995 ft 380 kts 266°
2026-04-18 12:51 34.62184 -87.36480 34003 ft 381 kts 266°
2026-04-18 12:51 34.61776 -87.42890 34001 ft 380 kts 266°
2026-04-18 12:52 34.61364 -87.49279 34003 ft 380 kts 266°
2026-04-18 12:52 34.60955 -87.55633 34007 ft 379 kts 266°
2026-04-18 12:53 34.60541 -87.62014 34010 ft 379 kts 265°
2026-04-18 12:53 34.60122 -87.68398 34007 ft 379 kts 265°
2026-04-18 12:54 34.59699 -87.74788 34002 ft 380 kts 265°
2026-04-18 12:54 34.59273 -87.81173 34002 ft 379 kts 265°
2026-04-18 12:55 34.58844 -87.87543 33994 ft 379 kts 265°
2026-04-18 12:55 34.58412 -87.93915 33990 ft 378 kts 265°
2026-04-18 12:56 34.57978 -88.00273 33991 ft 378 kts 265°
2026-04-18 12:56 34.57540 -88.06644 33986 ft 379 kts 265°
2026-04-18 12:57 34.57099 -88.13011 33997 ft 379 kts 265°
2026-04-18 12:57 34.56653 -88.19394 33985 ft 380 kts 264°
2026-04-18 12:58 34.56203 -88.25782 33985 ft 380 kts 264°
2026-04-18 12:58 34.55750 -88.32165 33976 ft 380 kts 264°
2026-04-18 12:59 34.55294 -88.38546 33980 ft 379 kts 264°
2026-04-18 12:59 34.54835 -88.44920 33977 ft 379 kts 264°
2026-04-18 13:00 34.54374 -88.51287 33982 ft 379 kts 264°
2026-04-18 13:00 34.53909 -88.57662 33995 ft 379 kts 264°
2026-04-18 13:01 34.53436 -88.64079 33980 ft 379 kts 264°
2026-04-18 13:01 34.52966 -88.70415 33979 ft 380 kts 264°
2026-04-18 13:02 34.52490 -88.76799 33978 ft 380 kts 264°
2026-04-18 13:02 34.52011 -88.83174 33980 ft 380 kts 264°
2026-04-18 13:03 34.51529 -88.89552 33989 ft 380 kts 264°
2026-04-18 13:03 34.50798 -88.99122 33978 ft 379 kts 264°
2026-04-18 13:04 34.50307 -89.05494 33981 ft 379 kts 264°
2026-04-18 13:04 34.49814 -89.11858 33976 ft 379 kts 264°
2026-04-18 13:05 34.49317 -89.18223 33975 ft 379 kts 264°
2026-04-18 13:05 34.48817 -89.24583 33978 ft 379 kts 263°
2026-04-18 13:06 34.48313 -89.30956 33976 ft 381 kts 263°
2026-04-18 13:06 34.47803 -89.37353 33977 ft 382 kts 263°
2026-04-18 13:07 34.47288 -89.43784 33963 ft 382 kts 263°
2026-04-18 13:07 34.46773 -89.50169 33971 ft 380 kts 263°
2026-04-18 13:08 34.46256 -89.56530 33964 ft 378 kts 263°
2026-04-18 13:08 34.45738 -89.62863 33975 ft 378 kts 263°